Time,TemperatureF,DewpointF,PressureIn,WindDirection,WindDirectionDegrees,WindSpeedMPH,WindSpeedGustMPH,Humidity,HourlyPrecipIn,Conditions,Clouds,dailyrainin,SoftwareType,DateUTC
2013-08-22 00:23:00,78.0,76.0,30.03,East,93,0.0,1.0,93,0.00,,,0.24,,2013-08-22 04:23:00,
2013-08-22 00:54:00,78.0,76.0,30.02,NE,49,0.0,1.0,93,0.00,,,0.24,,2013-08-22 04:54:00,
2013-08-22 01:13:00,78.0,76.0,30.03,ESE,107,0.0,0.0,93,0.00,,,0.24,,2013-08-22 05:13:00,
2013-08-22 01:22:00,78.0,76.0,30.03,ESE,121,0.0,0.0,93,0.00,,,0.24,,2013-08-22 05:22:00,
2013-08-22 01:43:00,78.0,76.0,30.03,SE,131,0.0,0.0,93,0.00,,,0.24,,2013-08-22 05:43:00,
2013-08-22 01:53:00,78.0,76.0,30.03,SE,144,0.0,0.0,93,0.00,,,0.24,,2013-08-22 05:53:00,
2013-08-22 02:22:00,78.0,76.0,30.03,SE,144,0.0,0.0,93,0.00,,,0.24,,2013-08-22 06:22:00,
2013-08-22 02:42:00,78.0,76.0,30.02,SE,144,0.0,0.0,93,0.00,,,0.24,,2013-08-22 06:42:00,
2013-08-22 02:52:00,78.0,76.0,30.01,SE,144,0.0,0.0,93,0.00,,,0.24,,2013-08-22 06:52:00,
2013-08-22 03:22:00,78.0,76.0,30.01,ENE,61,0.0,0.0,93,0.00,,,0.24,,2013-08-22 07:22:00,
2013-08-22 03:53:00,78.0,76.0,30.00,NE,55,0.0,3.0,93,0.00,,,0.24,,2013-08-22 07:53:00,
2013-08-22 04:22:00,78.0,76.0,29.99,East,94,0.0,0.0,93,0.00,,,0.24,,2013-08-22 08:22:00,
2013-08-22 04:53:00,78.0,76.0,29.98,NE,49,0.0,2.0,94,0.00,,,0.24,,2013-08-22 08:53:00,
2013-08-22 05:22:00,78.0,76.0,29.99,SE,128,0.0,1.0,94,0.00,,,0.24,,2013-08-22 09:22:00,
2013-08-22 05:54:00,78.0,76.0,30.00,NE,48,0.0,0.0,94,0.00,,,0.24,,2013-08-22 09:54:00,
2013-08-22 06:23:00,77.0,75.0,30.00,SE,128,0.0,0.0,93,0.00,,,0.24,,2013-08-22 10:23:00,
2013-08-22 06:33:00,77.0,75.0,30.00,East,100,0.0,0.0,93,0.00,,,0.24,,2013-08-22 10:33:00,
2013-08-22 06:42:00,77.0,75.0,30.00,ESE,113,0.0,1.0,93,0.00,,,0.24,,2013-08-22 10:42:00,
2013-08-22 08:52:00,78.0,75.0,30.03,NNE,18,0.0,4.0,92,0.00,,,0.24,,2013-08-22 12:52:00,
2013-08-22 09:12:00,79.0,76.0,30.03,East,98,0.0,3.0,91,0.00,,,0.24,,2013-08-22 13:12:00,
2013-08-22 09:22:00,80.0,77.0,30.02,East,101,0.0,4.0,90,0.00,,,0.24,,2013-08-22 13:22:00,
2013-08-22 09:52:00,82.0,77.0,30.03,South,171,3.0,8.0,85,0.00,,,0.24,,2013-08-22 13:52:00,
2013-08-22 10:22:00,84.0,78.0,30.04,ESE,117,2.0,8.0,83,0.00,,,0.24,,2013-08-22 14:22:00,
2013-08-22 10:52:00,87.0,80.0,30.04,NNE,33,2.0,6.0,79,0.00,,,0.24,,2013-08-22 14:52:00,
2013-08-22 11:22:00,87.0,79.0,30.03,South,178,3.0,6.0,77,0.00,,,0.23,,2013-08-22 15:22:00,
2013-08-22 11:55:00,88.0,79.0,30.03,East,84,3.0,10.0,76,0.00,,,0.23,,2013-08-22 15:55:00,
2013-08-22 12:14:00,89.0,80.0,30.02,NNE,19,3.0,7.0,74,0.00,,,0.23,,2013-08-22 16:14:00,
2013-08-22 12:25:00,89.0,79.0,30.01,SE,125,1.0,5.0,72,0.00,,,0.23,,2013-08-22 16:25:00,
2013-08-22 12:54:00,89.0,78.0,30.01,NE,34,1.0,5.0,71,0.00,,,0.23,,2013-08-22 16:54:00,
2013-08-22 13:12:00,91.0,80.0,30.00,East,94,1.0,6.0,70,0.00,,,0.23,,2013-08-22 17:12:00,
2013-08-22 13:24:00,91.0,79.0,30.00,NNE,31,3.0,7.0,68,0.00,,,0.23,,2013-08-22 17:24:00,
2013-08-22 13:53:00,91.0,80.0,29.99,ENE,74,3.0,9.0,70,0.00,,,0.23,,2013-08-22 17:53:00,
2013-08-22 14:12:00,92.0,80.0,29.99,NE,53,0.0,6.0,69,0.00,,,0.23,,2013-08-22 18:12:00,
2013-08-22 14:22:00,93.0,78.0,29.98,East,99,2.0,8.0,62,0.00,,,0.23,,2013-08-22 18:22:00,
2013-08-22 14:52:00,93.0,78.0,29.97,SE,144,1.0,7.0,62,0.00,,,0.23,,2013-08-22 18:52:00,
2013-08-22 15:11:00,93.0,79.0,29.96,SSW,202,0.0,4.0,63,0.00,,,0.23,,2013-08-22 19:11:00,
2013-08-22 15:22:00,92.0,77.0,29.96,NNW,328,1.0,3.0,62,0.00,,,0.23,,2013-08-22 19:22:00,
2013-08-22 15:53:00,89.0,74.0,29.96,NE,49,6.0,13.0,61,0.00,,,0.23,,2013-08-22 19:53:00,
2013-08-22 16:12:00,80.0,73.0,29.95,NNE,26,3.0,14.0,80,0.20,,,0.43,,2013-08-22 20:12:00,
2013-08-22 16:23:00,78.0,74.0,29.96,NW,317,4.0,9.0,87,0.38,,,0.61,,2013-08-22 20:23:00,
2013-08-22 16:52:00,77.0,73.0,29.97,NNW,336,4.0,12.0,88,0.39,,,0.62,,2013-08-22 20:52:00,
2013-08-22 17:13:00,76.0,73.0,29.96,NW,311,3.0,5.0,89,0.19,,,0.62,,2013-08-22 21:13:00,
2013-08-22 17:22:00,77.0,74.0,29.98,SSE,156,1.0,5.0,90,0.01,,,0.58,,2013-08-22 21:22:00,
2013-08-22 17:44:00,76.0,73.0,29.97,NE,50,2.0,6.0,90,0.07,,,0.65,,2013-08-22 21:44:00,
2013-08-22 17:54:00,76.0,74.0,29.97,NNE,33,1.0,3.0,92,0.08,,,0.66,,2013-08-22 21:54:00,
2013-08-22 18:13:00,76.0,73.0,29.97,ENE,57,3.0,10.0,91,0.08,,,0.66,,2013-08-22 22:13:00,
2013-08-22 18:25:00,76.0,73.0,29.97,ESE,123,2.0,6.0,91,0.08,,,0.53,,2013-08-22 22:25:00,
2013-08-22 18:53:00,77.0,74.0,29.98,NE,41,1.0,4.0,91,0.00,,,0.53,,2013-08-22 22:53:00,
2013-08-22 19:11:00,77.0,74.0,29.98,NE,44,4.0,7.0,91,0.00,,,0.53,,2013-08-22 23:11:00,
2013-08-22 19:23:00,77.0,74.0,29.98,NE,38,1.0,7.0,91,0.00,,,0.53,,2013-08-22 23:23:00,
2013-08-22 19:53:00,77.0,74.0,29.97,NE,54,3.0,6.0,91,0.01,,,0.54,,2013-08-22 23:53:00,
2013-08-22 20:12:00,76.0,74.0,29.98,NE,39,1.0,9.0,92,0.01,,,0.54,,2013-08-23 00:12:00,
2013-08-22 20:23:00,76.0,73.0,29.99,North,5,2.0,5.0,91,0.01,,,0.54,,2013-08-23 00:23:00,
2013-08-22 20:42:00,76.0,73.0,29.99,ENE,70,5.0,9.0,91,0.01,,,0.54,,2013-08-23 00:42:00,
2013-08-22 20:52:00,75.0,72.0,29.98,NE,40,1.0,9.0,90,0.00,,,0.54,,2013-08-23 00:52:00,
2013-08-22 21:11:00,75.0,72.0,29.98,ESE,117,0.0,4.0,91,0.01,,,0.55,,2013-08-23 01:11:00,
2013-08-22 21:22:00,75.0,72.0,29.97,ENE,69,0.0,0.0,91,0.01,,,0.51,,2013-08-23 01:22:00,
2013-08-22 21:52:00,76.0,74.0,29.97,ESE,103,0.0,0.0,92,0.01,,,0.51,,2013-08-23 01:52:00,
2013-08-22 22:11:00,76.0,74.0,29.97,South,184,0.0,0.0,92,0.01,,,0.52,,2013-08-23 02:11:00,
2013-08-22 22:23:00,75.0,73.0,29.97,South,184,0.0,0.0,92,0.01,,,0.51,,2013-08-23 02:23:00,
2013-08-22 22:43:00,75.0,73.0,29.97,East,92,0.0,0.0,93,0.01,,,0.51,,2013-08-23 02:43:00,
2013-08-22 22:52:00,76.0,74.0,29.98,ENE,63,0.0,0.0,93,0.01,,,0.51,,2013-08-23 02:52:00,
2013-08-22 23:12:00,76.0,74.0,29.99,ENE,63,0.0,0.0,93,0.00,,,0.51,,2013-08-23 03:12:00,
2013-08-22 23:23:00,76.0,74.0,29.99,ENE,63,0.0,0.0,93,0.00,,,0.50,,2013-08-23 03:23:00,
2013-08-22 23:55:00,76.0,74.0,30.00,ENE,63,0.0,0.0,93,0.00,,,0.50,,2013-08-23 03:55:00,